[Date Prev][Date Next][Thread Prev][Thread Next] - [Date Index][Thread Index][Author Index]

2 Line ISS Keps 6-2



ISS
1 25544U 98067A   02153.47962963  .00025509  00000-0  31142-3 0  5190
2 25544  51.6366 126.8655 0006416 140.8230 350.4444 15.60261122201730


----
Via the sarex mailing list at AMSAT.ORG courtesy of AMSAT-NA.
To unsubscribe, send "unsubscribe sarex" to Majordomo@amsat.org



AMSAT Top AMSAT Home